Miscellaneous Local Product
Issued by NWS Hastings, NE

Home | Current Version | Previous Version | Text Only | Print | Product List | Glossary On
Versions: 1 2 3 4 5 6 7 8 9 10 11 12 13 14 15 16 17 18 19 20 21 22 23 24 25 26 27 28 29 30 31 32 33 34 35 36 37 38 39 40 41 42 43 44 45 46 47 48 49 50
000
AXUS43 KGID 220302
MISGRI

GID CWA HOURLY WEATHER ROUNDUP
NATIONAL WEATHER SERVICE HASTINGS NE
1000 PM CDT SAT APR 21 2018

NOTE: "FAIR" INDICATES FEW OR NO CLOUDS BELOW 12,000 FEET WITH NO
SIGNIFICANT WEATHER AND/OR OBSTRUCTIONS TO VISIBILITY.

...SOUTH CENTRAL NEBRASKA...

CITY           SKY/WX    TMP DP  RH WIND       PRES   REMARKS
GRAND ISLAND   LGT RAIN  43  38  82 E8        30.28R
KEARNEY        CLOUDY    42  39  89 N6        30.26R
HASTINGS       LGT RAIN  43  40  89 NE7       30.25R
ORD            CLOUDY    43  37  79 NE7       30.26R
YORK             N/A     43  43 100 NW7       30.26R
AURORA         DRIZZLE   43  40  88 CALM      30.27R
LEXINGTON      CLOUDY    42  40  91 CALM      30.26R FOG
HOLDREGE       CLOUDY    41  41  98 N5        30.25R
HEBRON         RAIN      45  43  93 NW5       30.26R

...NEBRASKA PANHANDLE...

CITY           SKY/WX    TMP DP  RH WIND       PRES   REMARKS
CHADRON        CLEAR     37  34  89 S8        30.18R WCI  31
ALLIANCE       CLOUDY    40  37  89 S8        30.20R WCI  34
SCOTTSBLUFF    MOCLDY    40  38  93 SE13      30.19R WCI  32
SIDNEY         CLOUDY    38  33  82 S7        30.22R WCI  33

...WESTERN AND NORTH CENTRAL NEBRASKA...

CITY           SKY/WX    TMP DP  RH WIND       PRES   REMARKS
VALENTINE      CLOUDY    45  37  73 SE8       30.25R
AINSWORTH      CLOUDY    40  37  89 SE5       30.25S
ONEILL         CLOUDY    44  37  78 CALM      30.27R
BROKEN BOW     CLOUDY    42  38  85 CALM      30.25R
IMPERIAL       CLOUDY    41  39  93 CALM      30.24S
NORTH PLATTE   CLOUDY    42  38  85 SE3       30.25R
MCCOOK         CLOUDY    41  39  93 W6        30.24R

...EASTERN NEBRASKA...

CITY           SKY/WX    TMP DP  RH WIND       PRES   REMARKS
NORFOLK        CLOUDY    47  35  63 NE5       30.26R
SO SIOUX CITY  CLOUDY    48  38  68 NE8       30.27S
TEKAMAH        MOCLDY    48  31  51 N8        30.26R
COLUMBUS       CLOUDY    45  35  68 NW6       30.26R
ALBION         CLOUDY    44  38  79 NE6       30.27R
OMAHA EPPLEY   CLOUDY    53  28  38 E12       30.25R
OFFUTT AFB     CLOUDY    51  29  44 NE12      30.24R
MILLARD        CLOUDY    54  31  41 E6        30.24S
LINCOLN        CLOUDY    48  37  65 N8        30.25R
NEBRASKA CITY  CLOUDY    52  31  44 NE8       30.22S
BEATRICE       LGT RAIN  49  39  69 NE10      30.22R
FALLS CITY     CLOUDY    52  33  48 E7        30.19R

...NORTHERN KANSAS...

CITY           SKY/WX    TMP DP  RH WIND       PRES   REMARKS
GOODLAND       CLOUDY    40  39  97 CALM      30.23R
HILL CITY      CLOUDY    43  42  97 N7        30.25R
NORTON         CLOUDY    41  39  93 N3        30.25R
PHILLIPSBURG   CLOUDY    45  45 100 N3        30.25S
SMITH CENTER   MOCLDY    43  37  81 N3        30.25R
BELOIT         CLOUDY    43  41  93 CALM      30.25R
HAYS           CLOUDY    44  42  93 NE8       30.23R
RUSSELL        LGT RAIN  44  44 100 N8        30.22R FOG
CONCORDIA      LGT RAIN  44  42  93 NW5       30.23R
SALINA         LGT RAIN  46  45  96 N12       30.22R FOG
TOPEKA         CLOUDY    50  44  80 NW3       30.15R



USA.gov is the U.S. government's official web portal to all federal, state and local government web resources and services.